Hourly Weather Belyaevka

Today, 25 January, Monday

Time Temperature Precipitation Wind Pressure Humidity
00:00 +4°C° 0 mm 4 mps 747 mmHg 89%
01:00 +4°C° 0 mm 4 mps 747 mmHg 88%
02:00 +4°C° 0 mm 3 mps 747 mmHg 86%
03:00 +5°C° 0 mm 4 mps 747 mmHg 87%
04:00 +5°C° 0 mm 5 mps 746 mmHg 88%
05:00 +4°C° 0 mm 6 mps 746 mmHg 89%
06:00 +5°C° 0 mm 7 mps 746 mmHg 89%
07:00 +5°C° 0 mm 7 mps 745 mmHg 90%
08:00 +6°C° 0 mm 8 mps 745 mmHg 91%
09:00 +6°C° 0.1 mm 9 mps 745 mmHg 90%
10:00 +7°C° 0.1 mm 9 mps 744 mmHg 89%
11:00 +7°C° 0.1 mm 10 mps 744 mmHg 87%
12:00 +7°C° 0.6 mm 10 mps 743 mmHg 89%
13:00 +7°C° 0.6 mm 11 mps 742 mmHg 90%
14:00 +7°C° 0.6 mm 11 mps 741 mmHg 92%
15:00 +7°C° 1.2 mm 11 mps 741 mmHg 92%
16:00 +6°C° 1.2 mm 11 mps 741 mmHg 92%
17:00 +6°C° 1.2 mm 11 mps 740 mmHg 93%
18:00 +6°C° 0.6 mm 10 mps 740 mmHg 87%
19:00 +5°C° 0.6 mm 10 mps 740 mmHg 82%
20:00 +3°C° 0.6 mm 10 mps 740 mmHg 76%
21:00 +3°C° 0 mm 9 mps 741 mmHg 72%
22:00 +2°C° 0 mm 8 mps 743 mmHg 69%
23:00 +2°C° 0 mm 7 mps 744 mmHg 65%

Tomorrow, 26 January, Tuesday

Time Temperature Precipitation Wind Pressure Humidity
00:00 +2°C° 0 mm 7 mps 745 mmHg 65%
01:00 0°C° 0 mm 7 mps 746 mmHg 66%
02:00 +1°C° 0 mm 6 mps 746 mmHg 67%
03:00 0°C° 0 mm 5 mps 747 mmHg 71%
04:00 0°C° 0 mm 5 mps 747 mmHg 75%
05:00 -1°C° 0 mm 4 mps 747 mmHg 79%
06:00 +1°C° 0.2 mm 3 mps 747 mmHg 81%
07:00 +3°C° 0.2 mm 1 mps 747 mmHg 82%
08:00 +2°C° 0.2 mm 0 mps 747 mmHg 84%
09:00 +2°C° 0.9 mm 2 mps 747 mmHg 88%
10:00 +1°C° 0.9 mm 3 mps 748 mmHg 92%
11:00 -1°C° 0.9 mm 4 mps 748 mmHg 95%
12:00 0°C° 0.5 mm 4 mps 748 mmHg 95%
13:00 0°C° 0.5 mm 4 mps 748 mmHg 95%
14:00 0°C° 0.5 mm 4 mps 748 mmHg 95%
15:00 0°C° 0.1 mm 4 mps 748 mmHg 94%
16:00 +1°C° 0.1 mm 3 mps 749 mmHg 94%
17:00 +1°C° 0.1 mm 3 mps 749 mmHg 93%
18:00 +1°C° 0 mm 3 mps 749 mmHg 91%
19:00 +1°C° 0 mm 3 mps 749 mmHg 90%
20:00 +1°C° 0 mm 3 mps 749 mmHg 88%
21:00 0°C° 0.1 mm 4 mps 749 mmHg 86%
22:00 0°C° 0.1 mm 5 mps 749 mmHg 84%
23:00 -1°C° 0.1 mm 6 mps 749 mmHg 82%

Day after tomorrow, 27 January, Wednesday

Time Temperature Precipitation Wind Pressure Humidity
00:00 -2°C° 0.7 mm 7 mps 749 mmHg 86%
01:00 -2°C° 0.7 mm 8 mps 748 mmHg 91%
02:00 -4°C° 0.7 mm 9 mps 748 mmHg 96%
03:00 -4°C° 0.9 mm 9 mps 747 mmHg 96%
04:00 -4°C° 0.9 mm 9 mps 746 mmHg 96%
05:00 -4°C° 0.9 mm 10 mps 746 mmHg 96%
06:00 -4°C° 1.2 mm 9 mps 745 mmHg 96%
07:00 -3°C° 1.2 mm 9 mps 745 mmHg 96%
08:00 -3°C° 1.2 mm 9 mps 744 mmHg 96%
09:00 -1°C° 2.3 mm 8 mps 744 mmHg 97%
10:00 0°C° 2.3 mm 7 mps 743 mmHg 98%
11:00 0°C° 2.3 mm 7 mps 742 mmHg 99%
12:00 +2°C° 2.6 mm 7 mps 742 mmHg 98%
13:00 +4°C° 2.6 mm 6 mps 741 mmHg 98%
14:00 +5°C° 2.6 mm 6 mps 741 mmHg 97%
15:00 +5°C° 0.4 mm 6 mps 741 mmHg 96%
16:00 +6°C° 0.4 mm 5 mps 741 mmHg 94%
17:00 +6°C° 0.4 mm 5 mps 741 mmHg 93%
18:00 +5°C° 0 mm 4 mps 741 mmHg 94%
19:00 +4°C° 0 mm 4 mps 741 mmHg 96%
20:00 +3°C° 0 mm 3 mps 742 mmHg 97%
21:00 +2°C° 0 mm 3 mps 742 mmHg 97%
22:00 +2°C° 0 mm 3 mps 742 mmHg 96%
23:00 +1°C° 0 mm 3 mps 742 mmHg 96%

28 January, Thursday

Time Temperature Precipitation Wind Pressure Humidity
00:00 0°C° 0 mm 4 mps 742 mmHg 95%
01:00 0°C° 0 mm 4 mps 742 mmHg 94%
02:00 -1°C° 0 mm 4 mps 742 mmHg 93%
03:00 -1°C° 0 mm 4 mps 742 mmHg 93%
04:00 -1°C° 0 mm 4 mps 742 mmHg 93%
05:00 -1°C° 0 mm 4 mps 742 mmHg 93%
06:00 -1°C° 0 mm 4 mps 743 mmHg 93%
07:00 -1°C° 0 mm 4 mps 743 mmHg 93%
08:00 -1°C° 0 mm 4 mps 743 mmHg 92%
09:00 -1°C° 0 mm 4 mps 743 mmHg 92%
10:00 -1°C° 0 mm 4 mps 744 mmHg 91%
11:00 -1°C° 0 mm 4 mps 744 mmHg 91%
12:00 -1°C° 0 mm 4 mps 744 mmHg 91%
13:00 -1°C° 0 mm 5 mps 744 mmHg 92%
14:00 -1°C° 0 mm 5 mps 744 mmHg 92%
15:00 -2°C° 0.1 mm 6 mps 744 mmHg 93%
16:00 -2°C° 0.1 mm 6 mps 745 mmHg 94%
17:00 -3°C° 0.1 mm 7 mps 745 mmHg 95%
18:00 -3°C° 0 mm 6 mps 746 mmHg 94%
19:00 -3°C° 0 mm 6 mps 746 mmHg 92%
20:00 -4°C° 0 mm 6 mps 746 mmHg 90%
21:00 -4°C° 0.1 mm 6 mps 747 mmHg 91%
22:00 -4°C° 0.1 mm 6 mps 747 mmHg 92%
23:00 -4°C° 0.1 mm 5 mps 748 mmHg 93%

29 January, Friday

Time Temperature Precipitation Wind Pressure Humidity
00:00 -4°C° 0.1 mm 6 mps 748 mmHg 93%
01:00 -4°C° 0.1 mm 6 mps 748 mmHg 92%
02:00 -4°C° 0.1 mm 6 mps 749 mmHg 92%
03:00 -4°C° 0.1 mm 6 mps 749 mmHg 92%
04:00 -5°C° 0.1 mm 6 mps 749 mmHg 92%
05:00 -5°C° 0.1 mm 6 mps 749 mmHg 91%
06:00 -5°C° 0 mm 5 mps 750 mmHg 90%
07:00 -5°C° 0 mm 5 mps 750 mmHg 89%
08:00 -4°C° 0 mm 4 mps 750 mmHg 87%
09:00 -3°C° 0 mm 4 mps 751 mmHg 85%
10:00 -3°C° 0 mm 4 mps 751 mmHg 82%
11:00 -2°C° 0 mm 4 mps 751 mmHg 80%
12:00 -1°C° 0 mm 3 mps 751 mmHg 78%
13:00 0°C° 0 mm 3 mps 751 mmHg 77%
14:00 0°C° 0 mm 3 mps 751 mmHg 75%
15:00 0°C° 0 mm 3 mps 751 mmHg 78%
16:00 -1°C° 0 mm 3 mps 751 mmHg 80%
17:00 -1°C° 0 mm 2 mps 750 mmHg 82%
18:00 -1°C° 0 mm 3 mps 750 mmHg 83%
19:00 -1°C° 0 mm 3 mps 750 mmHg 83%
20:00 -3°C° 0 mm 4 mps 750 mmHg 84%
21:00 -3°C° 0 mm 4 mps 750 mmHg 83%
22:00 -3°C° 0 mm 4 mps 749 mmHg 83%
23:00 -3°C° 0 mm 4 mps 749 mmHg 83%

30 January, Saturday

Time Temperature Precipitation Wind Pressure Humidity
00:00 -4°C° 0 mm 5 mps 748 mmHg 84%
01:00 -4°C° 0 mm 5 mps 748 mmHg 85%
02:00 -4°C° 0 mm 6 mps 747 mmHg 86%
03:00 -3°C° 0 mm 6 mps 747 mmHg 87%
04:00 -3°C° 0 mm 6 mps 746 mmHg 87%
05:00 -3°C° 0 mm 6 mps 746 mmHg 88%
06:00 -2°C° 0.1 mm 6 mps 746 mmHg 88%
07:00 -1°C° 0.1 mm 7 mps 745 mmHg 89%
08:00 -1°C° 0.1 mm 7 mps 745 mmHg 89%
09:00 0°C° 0 mm 7 mps 745 mmHg 87%
10:00 +2°C° 0 mm 7 mps 745 mmHg 85%
11:00 +2°C° 0 mm 7 mps 745 mmHg 83%
12:00 +3°C° 0 mm 6 mps 745 mmHg 82%
13:00 +4°C° 0 mm 6 mps 745 mmHg 81%
14:00 +5°C° 0 mm 5 mps 745 mmHg 80%
15:00 +3°C° 0 mm 5 mps 745 mmHg 83%
16:00 +3°C° 0 mm 4 mps 745 mmHg 87%
17:00 +3°C° 0 mm 3 mps 745 mmHg 90%
18:00 +2°C° 0 mm 3 mps 745 mmHg 91%
19:00 +2°C° 0 mm 2 mps 745 mmHg 92%
20:00 +2°C° 0 mm 2 mps 746 mmHg 93%
21:00 +2°C° 0 mm 2 mps 746 mmHg 93%
22:00 +2°C° 0 mm 1 mps 746 mmHg 93%
23:00 +2°C° 0 mm 1 mps 746 mmHg 94%
Show more